EZY982 EGJJ-EGMC

Flight info

Callsign EZY982
Flight time 0h 51m
Altitude 28000
Route BENIX G27 NEVIL
Aircraft A320/M-SDE2E3FGHIJ1RWXYZ/LB1

Departure

Time 2026-04-16 15:28
Airport Jersey Airport (EGJJ)

Arrival

Time 2026-04-16 16:20
Airport London Southend Airport (EGMC)
Time Latitude Longitude Altitude Speed Heading
2026-04-16 14:54 49.20554 -2.19753 287 ft 0 kts 173°
2026-04-16 14:55 49.20555 -2.19753 287 ft 0 kts 173°
2026-04-16 15:19 49.20571 -2.19756 288 ft 4 kts 169°
2026-04-16 15:19 49.20596 -2.19767 284 ft 4 kts 148°
2026-04-16 15:20 49.20610 -2.19791 290 ft 3 kts 86°
2026-04-16 15:20 49.20610 -2.19796 290 ft 0 kts 83°
2026-04-16 15:22 49.20611 -2.19783 284 ft 3 kts 83°
2026-04-16 15:22 49.20617 -2.19723 284 ft 8 kts 78°
2026-04-16 15:22 49.20654 -2.19659 284 ft 8 kts 34°
2026-04-16 15:23 49.20687 -2.19602 284 ft 7 kts 57°
2026-04-16 15:23 49.20699 -2.19540 284 ft 6 kts 79°
2026-04-16 15:23 49.20705 -2.19487 284 ft 5 kts 80°
2026-04-16 15:23 49.20710 -2.19424 284 ft 9 kts 86°
2026-04-16 15:24 49.20697 -2.19299 284 ft 12 kts 103°
2026-04-16 15:24 49.20681 -2.19176 284 ft 11 kts 95°
2026-04-16 15:24 49.20687 -2.19065 284 ft 10 kts 83°
2026-04-16 15:24 49.20695 -2.18966 284 ft 9 kts 83°
2026-04-16 15:25 49.20704 -2.18862 284 ft 13 kts 82°
2026-04-16 15:25 49.20720 -2.18689 284 ft 20 kts 82°
2026-04-16 15:25 49.20735 -2.18485 284 ft 13 kts 82°
2026-04-16 15:25 49.20769 -2.18416 284 ft 2 kts 34°
2026-04-16 15:26 49.20777 -2.18408 284 ft 1 kts 34°
2026-04-16 15:26 49.20780 -2.18406 284 ft 0 kts 34°
2026-04-16 15:27 49.20806 -2.18382 279 ft 9 kts 26°
2026-04-16 15:27 49.20869 -2.18376 282 ft 10 kts 350°
2026-04-16 15:27 49.20892 -2.18401 283 ft 3 kts 278°
2026-04-16 15:27 49.20892 -2.18424 281 ft 0 kts 261°
2026-04-16 15:28 49.20872 -2.18660 283 ft 65 kts 263°
2026-04-16 15:28 49.20775 -2.19797 287 ft 147 kts 262°
2026-04-16 15:28 49.20626 -2.21484 935 ft 165 kts 262°
2026-04-16 15:29 49.20478 -2.23291 1739 ft 179 kts 260°
2026-04-16 15:29 49.20167 -2.25261 2051 ft 203 kts 247°
2026-04-16 15:29 49.19404 -2.27214 2354 ft 232 kts 229°
2026-04-16 15:29 49.18089 -2.28858 3034 ft 247 kts 208°
2026-04-16 15:30 49.16477 -2.29683 4025 ft 251 kts 189°
2026-04-16 15:30 49.14729 -2.29577 5054 ft 255 kts 168°
2026-04-16 15:30 49.13093 -2.28468 5987 ft 265 kts 148°
2026-04-16 15:30 49.11802 -2.26387 6851 ft 277 kts 124°
2026-04-16 15:31 49.11139 -2.23587 7696 ft 288 kts 101°
2026-04-16 15:31 49.11259 -2.20496 8527 ft 299 kts 75°
2026-04-16 15:31 49.11978 -2.17494 9437 ft 303 kts 71°
2026-04-16 15:31 49.12648 -2.14416 10269 ft 308 kts 75°
2026-04-16 15:32 49.13264 -2.11191 10701 ft 328 kts 72°
2026-04-16 15:32 49.14059 -2.07806 11060 ft 348 kts 69°
2026-04-16 15:32 49.14966 -2.04332 11740 ft 356 kts 68°
2026-04-16 15:32 49.15919 -2.00812 12490 ft 361 kts 68°
2026-04-16 15:33 49.16889 -1.97240 13220 ft 367 kts 68°
2026-04-16 15:33 49.17861 -1.93606 13920 ft 372 kts 68°
2026-04-16 15:33 49.18834 -1.89910 14563 ft 377 kts 69°
2026-04-16 15:33 49.19804 -1.86167 15222 ft 381 kts 68°
2026-04-16 15:34 49.21012 -1.82547 15855 ft 384 kts 56°
2026-04-16 15:34 49.22660 -1.79329 16508 ft 386 kts 44°
2026-04-16 15:34 49.24692 -1.76660 17144 ft 385 kts 31°
2026-04-16 15:34 49.26975 -1.74518 17864 ft 385 kts 27°
2026-04-16 15:35 49.29285 -1.72414 18546 ft 388 kts 27°
2026-04-16 15:35 49.31611 -1.70288 19086 ft 392 kts 27°
2026-04-16 15:35 49.33963 -1.68132 19626 ft 396 kts 27°
2026-04-16 15:35 49.36334 -1.65957 20169 ft 399 kts 27°
2026-04-16 15:36 49.38726 -1.63757 20709 ft 403 kts 27°
2026-04-16 15:36 49.41138 -1.61531 21230 ft 406 kts 27°
2026-04-16 15:36 49.43570 -1.59285 21761 ft 410 kts 27°
2026-04-16 15:36 49.46026 -1.57020 22268 ft 413 kts 27°
2026-04-16 15:37 49.48502 -1.54731 22780 ft 417 kts 27°
2026-04-16 15:37 49.50996 -1.52418 23279 ft 420 kts 27°
2026-04-16 15:37 49.53490 -1.50036 23780 ft 426 kts 31°
2026-04-16 15:37 49.55798 -1.47120 24185 ft 433 kts 41°
2026-04-16 15:38 49.57885 -1.43740 24598 ft 437 kts 44°
2026-04-16 15:38 49.59972 -1.40305 24995 ft 440 kts 44°
2026-04-16 15:38 49.62075 -1.36848 25384 ft 443 kts 44°
2026-04-16 15:38 49.64191 -1.33367 25756 ft 446 kts 44°
2026-04-16 15:39 49.66319 -1.29863 26169 ft 449 kts 44°
2026-04-16 15:39 49.68455 -1.26331 26563 ft 451 kts 44°
2026-04-16 15:39 49.70603 -1.22773 26943 ft 454 kts 44°
2026-04-16 15:39 49.72767 -1.19190 27314 ft 457 kts 44°
2026-04-16 15:40 49.74941 -1.15585 27685 ft 460 kts 44°
2026-04-16 15:40 49.77128 -1.11940 28025 ft 464 kts 45°
2026-04-16 15:40 49.79065 -1.07920 28180 ft 467 kts 58°
2026-04-16 15:40 49.80438 -1.03461 28212 ft 451 kts 70°
2026-04-16 15:41 49.81394 -0.98888 28208 ft 444 kts 72°
2026-04-16 15:41 49.83315 -0.89848 28206 ft 441 kts 71°
2026-04-16 15:42 49.85265 -0.80904 27865 ft 433 kts 70°
2026-04-16 15:42 49.86224 -0.76502 27371 ft 430 kts 70°
2026-04-16 15:42 49.87174 -0.72129 26881 ft 427 kts 70°
2026-04-16 15:42 49.88110 -0.67777 26381 ft 424 kts 71°
2026-04-16 15:43 49.89034 -0.63443 25876 ft 422 kts 71°
2026-04-16 15:43 49.89950 -0.59128 25357 ft 421 kts 71°
2026-04-16 15:43 49.90853 -0.54874 24832 ft 420 kts 70°
2026-04-16 15:43 49.91817 -0.50538 24294 ft 419 kts 65°
2026-04-16 15:44 49.93173 -0.46579 23794 ft 414 kts 53°
2026-04-16 15:44 49.94972 -0.43146 23265 ft 406 kts 41°
2026-04-16 15:44 49.97096 -0.40338 22827 ft 398 kts 33°
2026-04-16 15:44 49.99274 -0.37707 22355 ft 395 kts 34°
2026-04-16 15:45 50.01430 -0.35097 21971 ft 390 kts 34°
2026-04-16 15:45 50.03548 -0.32524 21677 ft 383 kts 34°
2026-04-16 15:45 50.05600 -0.30025 21385 ft 376 kts 34°
2026-04-16 15:45 50.07645 -0.27532 21086 ft 371 kts 34°
2026-04-16 15:46 50.09668 -0.25066 20792 ft 368 kts 34°
2026-04-16 15:46 50.11676 -0.22615 20498 ft 366 kts 34°
2026-04-16 15:46 50.13667 -0.20157 20204 ft 365 kts 37°
2026-04-16 15:46 50.15430 -0.17294 19906 ft 367 kts 50°
2026-04-16 15:47 50.16841 -0.13975 19616 ft 368 kts 56°
2026-04-16 15:47 50.18181 -0.10586 19322 ft 366 kts 56°
2026-04-16 15:47 50.19515 -0.07212 19043 ft 364 kts 56°
2026-04-16 15:47 50.20844 -0.03859 18744 ft 362 kts 57°
2026-04-16 15:48 50.22166 -0.00520 18442 ft 360 kts 57°
2026-04-16 15:48 50.23478 0.02797 18138 ft 357 kts 57°
2026-04-16 15:48 50.24779 0.06092 17848 ft 356 kts 57°
2026-04-16 15:48 50.26072 0.09373 17568 ft 354 kts 57°
2026-04-16 15:49 50.27358 0.12641 17286 ft 352 kts 57°
2026-04-16 15:49 50.28639 0.15898 17005 ft 351 kts 57°
2026-04-16 15:49 50.29912 0.19139 16724 ft 349 kts 57°
2026-04-16 15:49 50.30752 0.21276 16541 ft 348 kts 57°
2026-04-16 15:50 50.32017 0.24498 16263 ft 346 kts 57°
2026-04-16 15:50 50.33275 0.27702 15984 ft 345 kts 57°
2026-04-16 15:50 50.34526 0.30892 15711 ft 343 kts 57°
2026-04-16 15:50 50.35771 0.34072 15438 ft 342 kts 57°
2026-04-16 15:51 50.37009 0.37239 15165 ft 340 kts 57°
2026-04-16 15:51 50.38240 0.40394 14895 ft 339 kts 58°
2026-04-16 15:51 50.39462 0.43541 14623 ft 337 kts 58°
2026-04-16 15:51 50.40675 0.46673 14345 ft 336 kts 57°
2026-04-16 15:52 50.41891 0.49778 14124 ft 332 kts 57°
2026-04-16 15:52 50.43130 0.52824 13998 ft 331 kts 56°
2026-04-16 15:52 50.44384 0.55839 13842 ft 330 kts 56°
2026-04-16 15:52 50.45640 0.58840 13683 ft 329 kts 56°
2026-04-16 15:53 50.46891 0.61843 13554 ft 328 kts 56°
2026-04-16 15:53 50.48132 0.64837 13405 ft 327 kts 56°
2026-04-16 15:53 50.49368 0.67832 13257 ft 326 kts 56°
2026-04-16 15:53 50.50598 0.70821 13120 ft 325 kts 56°
2026-04-16 15:54 50.51822 0.73801 12964 ft 325 kts 56°
2026-04-16 15:54 50.53042 0.76781 12834 ft 324 kts 56°
2026-04-16 15:54 50.54259 0.79759 12689 ft 323 kts 56°
2026-04-16 15:54 50.55469 0.82731 12549 ft 322 kts 56°
2026-04-16 15:55 50.56675 0.85697 12407 ft 321 kts 56°
2026-04-16 15:55 50.57878 0.88654 12263 ft 321 kts 56°
2026-04-16 15:55 50.59120 0.91558 12127 ft 319 kts 50°
2026-04-16 15:55 50.60671 0.94023 11982 ft 315 kts 36°
2026-04-16 15:56 50.62459 0.96001 11846 ft 313 kts 32°
2026-04-16 15:56 50.64254 0.97937 11708 ft 313 kts 32°
2026-04-16 15:56 50.66045 0.99888 11572 ft 313 kts 32°
2026-04-16 15:56 50.67828 1.01841 11433 ft 312 kts 32°
2026-04-16 15:57 50.69609 1.03792 11291 ft 311 kts 32°
2026-04-16 15:57 50.71389 1.05737 11152 ft 311 kts 32°
2026-04-16 15:57 50.73163 1.07678 11017 ft 310 kts 32°
2026-04-16 15:57 50.74934 1.09616 10869 ft 310 kts 32°
2026-04-16 15:58 50.76703 1.11550 10745 ft 309 kts 32°
2026-04-16 15:58 50.78464 1.13477 10607 ft 308 kts 32°
2026-04-16 15:58 50.80224 1.15412 10472 ft 307 kts 33°
2026-04-16 15:58 50.81976 1.17342 10336 ft 307 kts 33°
2026-04-16 15:59 50.85465 1.21185 10064 ft 304 kts 33°
2026-04-16 15:59 50.87201 1.23095 9921 ft 304 kts 32°
2026-04-16 15:59 50.88938 1.25005 9784 ft 304 kts 32°
2026-04-16 16:00 50.90673 1.26923 9647 ft 304 kts 32°
2026-04-16 16:00 50.92408 1.28844 9513 ft 304 kts 33°
2026-04-16 16:00 50.94136 1.30759 9382 ft 303 kts 33°
2026-04-16 16:00 50.95900 1.32560 9249 ft 301 kts 24°
2026-04-16 16:01 50.97829 1.33729 9150 ft 295 kts 11°
2026-04-16 16:01 50.99830 1.34421 9063 ft 294 kts
2026-04-16 16:01 51.01833 1.35112 8979 ft 295 kts
2026-04-16 16:01 51.03833 1.35811 8902 ft 294 kts
2026-04-16 16:02 51.05826 1.36511 8819 ft 293 kts 10°
2026-04-16 16:02 51.07820 1.37212 8724 ft 294 kts
2026-04-16 16:02 51.09813 1.37912 8658 ft 293 kts
2026-04-16 16:02 51.11799 1.38607 8575 ft 292 kts
2026-04-16 16:03 51.13786 1.39301 8492 ft 293 kts
2026-04-16 16:03 51.15769 1.39993 8408 ft 292 kts
2026-04-16 16:03 51.17748 1.40686 8326 ft 291 kts
2026-04-16 16:03 51.19724 1.41383 8247 ft 291 kts
2026-04-16 16:04 51.21700 1.42081 8167 ft 290 kts
2026-04-16 16:04 51.23668 1.42775 8082 ft 289 kts
2026-04-16 16:04 51.25625 1.43466 8004 ft 288 kts
2026-04-16 16:04 51.27583 1.44158 7928 ft 288 kts 10°
2026-04-16 16:05 51.29532 1.44845 7851 ft 287 kts
2026-04-16 16:05 51.31483 1.45531 7770 ft 287 kts
2026-04-16 16:05 51.33430 1.46218 7690 ft 286 kts 10°
2026-04-16 16:05 51.35374 1.46905 7606 ft 286 kts 10°
2026-04-16 16:06 51.37317 1.47595 7526 ft 286 kts 10°
2026-04-16 16:06 51.39262 1.48283 7446 ft 286 kts 10°
2026-04-16 16:06 51.41172 1.48956 7357 ft 281 kts
2026-04-16 16:06 51.43041 1.49621 7228 ft 269 kts
2026-04-16 16:07 51.44825 1.50211 7186 ft 254 kts
2026-04-16 16:07 51.46559 1.50180 7137 ft 247 kts 348°
2026-04-16 16:07 51.48243 1.49703 7084 ft 246 kts 347°
2026-04-16 16:07 51.49952 1.49123 7038 ft 263 kts 335°
2026-04-16 16:08 51.51491 1.47538 6994 ft 266 kts 314°
2026-04-16 16:08 51.52846 1.45506 6910 ft 266 kts 312°
2026-04-16 16:08 51.54129 1.43479 6840 ft 251 kts 312°
2026-04-16 16:08 51.55338 1.41556 6765 ft 239 kts 311°
2026-04-16 16:09 51.56514 1.39712 6691 ft 235 kts 312°
2026-04-16 16:09 51.57676 1.37857 6625 ft 236 kts 311°
2026-04-16 16:09 51.58834 1.35989 6591 ft 236 kts 311°
2026-04-16 16:09 51.59993 1.34116 6534 ft 236 kts 311°
2026-04-16 16:10 51.61150 1.32242 6479 ft 236 kts 311°
2026-04-16 16:10 51.62307 1.30373 6424 ft 235 kts 311°
2026-04-16 16:10 51.63460 1.28506 6380 ft 235 kts 311°
2026-04-16 16:10 51.64615 1.26639 6269 ft 236 kts 311°
2026-04-16 16:11 51.65763 1.24785 6033 ft 231 kts 311°
2026-04-16 16:11 51.66884 1.22983 5801 ft 225 kts 311°
2026-04-16 16:11 51.67978 1.21222 5573 ft 220 kts 311°
2026-04-16 16:11 51.69048 1.19498 5344 ft 216 kts 311°
2026-04-16 16:12 51.70099 1.17809 5116 ft 211 kts 311°
2026-04-16 16:12 51.71126 1.16151 4907 ft 207 kts 311°
2026-04-16 16:12 51.72129 1.14498 4687 ft 205 kts 306°
2026-04-16 16:12 51.72698 1.12482 4493 ft 197 kts 277°
2026-04-16 16:13 51.72862 1.10297 4415 ft 197 kts 272°
2026-04-16 16:13 51.72962 1.08094 4337 ft 197 kts 272°
2026-04-16 16:13 51.72963 1.05901 4260 ft 194 kts 258°
2026-04-16 16:13 51.72479 1.03898 4181 ft 192 kts 236°
2026-04-16 16:14 51.71700 1.02140 4093 ft 193 kts 234°
2026-04-16 16:14 51.70918 1.00382 4014 ft 193 kts 234°
2026-04-16 16:14 51.70141 0.98632 4007 ft 191 kts 234°
2026-04-16 16:14 51.69372 0.96903 3967 ft 190 kts 234°
2026-04-16 16:15 51.68608 0.95186 3783 ft 188 kts 234°
2026-04-16 16:15 51.67847 0.93477 3561 ft 188 kts 234°
2026-04-16 16:15 51.67085 0.91768 3326 ft 187 kts 234°
2026-04-16 16:15 51.66346 0.90111 3071 ft 178 kts 234°
2026-04-16 16:16 51.65636 0.88520 2826 ft 174 kts 233°
2026-04-16 16:16 51.64937 0.86953 2592 ft 171 kts 234°
2026-04-16 16:16 51.64267 0.85454 2363 ft 159 kts 233°
2026-04-16 16:16 51.63647 0.84065 2163 ft 148 kts 233°
2026-04-16 16:17 51.63078 0.82792 1975 ft 134 kts 233°
2026-04-16 16:17 51.62550 0.81611 1797 ft 128 kts 234°
2026-04-16 16:17 51.62035 0.80461 1634 ft 126 kts 234°
2026-04-16 16:17 51.61523 0.79319 1449 ft 125 kts 234°
2026-04-16 16:18 51.61019 0.78193 1287 ft 123 kts 233°
2026-04-16 16:18 51.60517 0.77075 1112 ft 123 kts 233°
2026-04-16 16:18 51.60015 0.75956 952 ft 124 kts 232°
2026-04-16 16:18 51.59509 0.74827 775 ft 124 kts 232°
2026-04-16 16:19 51.59009 0.73701 581 ft 125 kts 232°
2026-04-16 16:19 51.58502 0.72584 437 ft 122 kts 233°
2026-04-16 16:19 51.57997 0.71462 278 ft 124 kts 233°
2026-04-16 16:19 51.57501 0.70341 83 ft 122 kts 230°
2026-04-16 16:20 51.57083 0.69436 53 ft 64 kts 234°
2026-04-16 16:20 51.56967 0.69174 58 ft 16 kts 238°
2026-04-16 16:20 51.56902 0.69049 54 ft 10 kts 197°
2026-04-16 16:20 51.56853 0.69091 51 ft 3 kts 135°
2026-04-16 16:21 51.56841 0.69117 55 ft 0 kts 122°
2026-04-16 16:21 51.56840 0.69119 55 ft 1 kts 118°
2026-04-16 16:21 51.56839 0.69139 54 ft 6 kts 91°
2026-04-16 16:21 51.56870 0.69230 54 ft 10 kts 55°
2026-04-16 16:22 51.56897 0.69327 52 ft 9 kts 77°
2026-04-16 16:22 51.56910 0.69424 54 ft 9 kts 79°
2026-04-16 16:22 51.56919 0.69516 54 ft 8 kts 81°
2026-04-16 16:22 51.56915 0.69638 54 ft 14 kts 97°
2026-04-16 16:23 51.56898 0.69801 54 ft 14 kts 100°
2026-04-16 16:23 51.56882 0.69946 51 ft 12 kts 100°
2026-04-16 16:23 51.56873 0.70072 54 ft 10 kts 82°
2026-04-16 16:23 51.56909 0.70163 54 ft 10 kts 45°
2026-04-16 16:24 51.56928 0.70249 54 ft 2 kts 93°
2026-04-16 16:24 51.56927 0.70273 54 ft 2 kts 95°